Temp
1 1 2 2 2 1 1 1 -1 -0 0 1 1 1 1 2 2 2 3 3 3 3 3 2 1 1 1 1 0 -1 -1 -3 -1 0 1 2 2 3 3 3 4 5 5 5 5
0 1 1 1 1 1 1 1 0 -0 0 -0 1 0 1 1 2 2 3 3 2 2 2 2 1 1 0 0 -1 -1 -2 -2 -1 -1 -1 -0 1 2 3 3 4 4 4 4 5
-1 -0 -0 0 1 1 0 1 1 1 -0 -1 -0 -0 0 1 1 2 2 2 2 1 1 1 0 -0 -0 -1 -1 -1 -1 -2 -2 -2 -2 -2 -0 0 2 3 2 3 4 3 4
-1 -1 -1 -1 -0 0 1 1 0 -0 -1 -1 -1 -1 -1 0 1 1 1 1 1 0 -0 -0 -1 -1 -2 -2 -2 -2 -3 -4 -4 -3 -2 -2 -1 0 1 1 3 2 3 3 3
-5 -4 -2 -1 -1 -1 -0 -0 -0 -1 -1 -1 -1 -1 -1 -0 0 1 0 0 -0 -0 -1 -1 -1 -2 -2 -3 -3 -4 -4 -4 -5 -4 -4 -4 -2 -1 1 0 2 2 2 2 2
-6 -6 -6 -4 -3 -2 -1 -1 -0 -2 -2 -2 -2 -2 -1 -1 -0 0 0 -1 -1 -1 -2 -2 -2 -3 -3 -3 -4 -4 -3 -4 -4 -3 -3 -4 -2 -1 -1 1 1 2 2 2 1
-7 -7 -7 -6 -4 -3 -3 -2 -1 -3 -2 -2 -2 -2 -2 -2 -0 -1 -1 -1 -2 -2 -2 -3 -3 -3 -4 -4 -4 -4 -4 -3 -2 -3 -4 -4 -4 -3 -2 -1 1 2 2 2 2
-7 -7 -7 -7 -6 -5 -3 -3 -2 -2 -3 -3 -3 -2 -2 -1 -2 -2 -2 -2 -2 -3 -3 -3 -4 -4 -4 -5 -5 -5 -5 -4 -3 -3 -4 -5 -4 -1 -2 -2 -1 1 1 1 2
-8 -8 -7 -7 -7 -5 -5 -3 -4 -3 -3 -3 -3 -2 -3 -2 -2 -2 -2 -3 -3 -4 -4 -4 -5 -5 -6 -6 -6 -6 -5 -4 -3 -3 -4 -5 -4 -3 -2 -3 -2 -1 0 1 1
-8 -8 -7 -7 -7 -6 -5 -4 -4 -3 -4 -3 -3 -3 -2 -3 -3 -3 -3 -3 -3 -4 -4 -5 -6 -7 -7 -7 -6 -5 -6 -5 -5 -3 -4 -5 -3 -3 -2 -3 -2 -1 0 0 1
-8 -8 -8 -7 -7 -7 -5 -6 -5 -4 -4 -4 -3 -3 -2 -3 -3 -3 -4 -4 -4 -5 -5 -6 -6 -5 -5 -6 -6 -6 -6 -5 -3 -3 -5 -4 -3 -2 -2 -3 -2 -1 -0 0 1
-8 -8 -8 -8 -8 -7 -6 -6 -5 -5 -4 -4 -3 -4 -4 -3 -4 -4 -4 -4 -5 -5 -5 -5 -4 -5 -5 -5 -6 -6 -5 -5 -4 -3 -4 -4 -3 -1 -3 -2 -2 -1 -1 -0 0
-8 -8 -8 -8 -8 -8 -7 -6 -5 -5 -5 -5 -4 -3 -5 -5 -5 -5 -5 -5 -5 -5 -5 -4 -3 -4 -5 -5 -5 -5 -5 -4 -5 -5 -4 -4 -3 -2 -3 -3 -2 -1 -1 -0 -0
-8 -8 -8 -8 -8 -8 -7 -7 -6 -6 -5 -6 -5 -6 -5 -5 -5 -6 -5 -5 -5 -4 -4 -4 -3 -4 -4 -4 -5 -5 -3 -4 -4 -4 -4 -3 -4 -2 -2 -2 -2 -1 -1 -1 -0
-8 -8 -8 -8 -8 -8 -7 -7 -6 -6 -6 -6 -6 -6 -6 -5 -5 -5 -5 -5 -4 -4 -4 -3 -3 -4 -4 -4 -4 -4 -3 -3 -3 -4 -4 -3 -3 -3 -2 -2 -2 -1 -0 -0 0
-8 -8 -8 -8 -8 -8 -7 -6 -7 -5 -6 -6 -6 -6 -6 -6 -5 -5 -4 -4 -4 -4 -3 -3 -4 -4 -4 -4 -3 -3 -3 -3 -3 -3 -3 -2 -3 -3 -3 -3 -2 -0 0 -0 0
-8 -8 -8 -8 -8 -7 -7 -7 -5 -6 -6 -7 -6 -6 -6 -5 -6 -5 -4 -4 -4 -4 -4 -3 -3 -4 -3 -3 -3 -3 -3 -2 -2 -3 -2 -2 -2 -3 -3 -3 -2 -2 -1 -1 -0
-8 -8 -8 -8 -8 -8 -7 -6 -5 -7 -7 -6 -6 -5 -5 -5 -5 -5 -4 -4 -3 -4 -4 -4 -3 -3 -3 -3 -3 -3 -2 -3 -1 -2 -2 -2 -4 -4 -3 -3 -2 -1 -1 -1 -1
-6 -7 -8 -8 -7 -6 -6 -6 -7 -6 -6 -5 -5 -5 -5 -5 -4 -4 -4 -3 -3 -4 -4 -3 -3 -3 -2 -2 -3 -2 -3 -2 -2 -1 -2 -3 -3 -3 -3 -3 -2 -1 -1 -1 -1
-5 -6 -7 -7 -7 -6 -6 -6 -6 -5 -5 -4 -4 -4 -5 -4 -4 -3 -4 -3 -3 -3 -3 -3 -3 -2 -2 -2 -1 -2 -2 -2 -2 -1 -1 -2 -3 -3 -3 -3 -2 -2 -1 -1 -1
-5 -5 -7 -7 -7 -6 -6 -6 -5 -5 -4 -4 -4 -3 -3 -3 -3 -4 -3 -3 -3 -3 -3 -3 -2 -1 -1 -1 -0 -1 -0 -0 -0 0 -1 -2 -3 -3 -3 -2 -2 -1 -1 -1 -1
-4 -4 -5 -5 -6 -6 -6 -5 -5 -5 -5 -4 -3 -3 -3 -2 -3 -3 -3 -2 -2 -3 -3 -2 -2 -1 -1 -1 -0 -1 0 1 1 0 -0 -2 -4 -3 -2 -2 -2 -2 -1 -1 -1
-3 -4 -6 -6 -6 -5 -5 -5 -5 -3 -3 -3 -3 -2 -2 -2 -2 -3 -2 -2 -2 -2 -2 -2 -1 -1 -0 -0 0 -0 1 2 2 1 -1 -3 -4 -4 -2 -2 -2 -2 -2 -2 -2
-3 -5 -5 -5 -5 -5 -5 -4 -4 -3 -3 -3 -3 -2 -2 -2 -2 -2 -2 -2 -1 -1 -2 -1 -2 -2 -2 -2 -2 -1 0 1 2 1 -1 -0 -1 -2 -1 -1 -1 -1 -1 -1 -1
-3 -5 -5 -5 -5 -5 -4 -4 -4 -4 -3 -2 -2 -2 -2 -3 -2 -2 -2 -1 -1 -1 -1 -1 -1 -1 -2 -1 -1 -0 -0 0 1 0 1 -0 -0 -1 -1 -1 -1 -1 -1 -1 -1
-3 -4 -4 -4 -5 -4 -4 -3 -3 -3 -3 -3 -2 -2 -1 -1 -1 -1 -1 -1 -0 -0 -0 -0 -1 -1 -1 -1 -0 -0 0 -0 -0 -0 -1 -1 -1 -1 -1 -1 -1 -1 -1 -1 -1
-4 -4 -4 -5 -4 -4 -3 -3 -3 -2 -3 -2 -2 -1 -1 -0 -0 -1 -1 -0 -0 0 0 -0 -0 -1 -0 -1 -0 0 -0 -0 -1 -1 -1 -1 -1 -1 -1 -1 -1 -1 -1 -1 -1
Height
3071 3070 3068 3069 3070 3071 3071 3072 3074 3074 3076 3076 3077 3079 3077 3078 3078 3079 3079 3080 3081 3080 3078 3078 3079 3080 3081 3083 3085 3086 3085 3082 3085 3089 3088 3095 3094 3095 3096 3094 3098 3101 3105 3106 3108
3061 3059 3059 3059 3060 3060 3061 3063 3065 3068 3070 3070 3072 3073 3073 3073 3073 3075 3075 3074 3075 3076 3076 3075 3075 3076 3078 3079 3080 3080 3079 3079 3083 3085 3085 3087 3088 3087 3089 3089 3091 3095 3100 3101 3101
3051 3049 3048 3048 3050 3051 3051 3053 3057 3060 3062 3064 3066 3067 3068 3069 3070 3071 3070 3069 3071 3072 3071 3071 3072 3071 3074 3074 3075 3075 3072 3078 3079 3080 3081 3080 3080 3082 3081 3080 3086 3088 3091 3092 3094
3041 3039 3039 3038 3039 3040 3041 3044 3047 3051 3055 3058 3061 3062 3064 3066 3068 3066 3066 3066 3066 3067 3067 3067 3068 3068 3069 3069 3070 3069 3070 3072 3072 3074 3075 3073 3073 3072 3074 3075 3079 3081 3085 3086 3086
3033 3031 3029 3028 3029 3030 3032 3035 3038 3041 3047 3052 3054 3057 3059 3060 3061 3062 3062 3062 3063 3063 3063 3064 3065 3064 3064 3064 3064 3063 3064 3065 3065 3066 3065 3065 3064 3064 3063 3068 3072 3076 3080 3082 3082
3027 3025 3022 3020 3020 3021 3024 3026 3030 3035 3040 3044 3049 3052 3054 3056 3056 3058 3057 3059 3059 3060 3061 3061 3061 3059 3059 3060 3060 3060 3058 3057 3057 3060 3060 3058 3055 3057 3058 3064 3067 3072 3073 3076 3077
3020 3018 3016 3014 3013 3014 3016 3020 3024 3029 3034 3039 3043 3046 3048 3050 3051 3054 3053 3054 3055 3057 3057 3057 3056 3056 3055 3056 3055 3054 3052 3051 3053 3054 3053 3054 3041 3043 3051 3058 3059 3062 3066 3070 3071
3014 3012 3011 3010 3008 3009 3011 3014 3018 3024 3029 3034 3035 3040 3043 3045 3046 3049 3050 3051 3052 3053 3054 3053 3051 3052 3053 3052 3052 3051 3049 3046 3047 3049 3049 3048 3029 3038 3042 3046 3049 3054 3058 3063 3066
3008 3008 3006 3005 3004 3005 3008 3011 3016 3020 3025 3029 3032 3036 3039 3041 3043 3046 3047 3048 3049 3050 3050 3049 3048 3049 3049 3048 3048 3047 3045 3043 3043 3044 3043 3044 3029 3034 3035 3039 3040 3045 3050 3057 3060
3003 3003 3003 3001 3001 3003 3007 3005 3010 3013 3017 3023 3028 3032 3035 3038 3040 3043 3044 3044 3045 3045 3046 3046 3046 3045 3046 3046 3044 3045 3043 3041 3040 3039 3040 3037 3028 3029 3033 3035 3037 3040 3043 3051 3057
2998 2998 2998 2998 2998 3000 3001 2996 3009 3012 3013 3023 3024 3027 3031 3035 3039 3040 3040 3041 3043 3043 3043 3043 3043 3042 3044 3044 3044 3043 3040 3037 3035 3036 3036 3030 3026 3025 3029 3032 3034 3036 3040 3046 3051
2993 2992 2993 2994 2996 2997 2997 2997 3004 3007 3014 3017 3019 3024 3030 3033 3036 3037 3039 3041 3040 3041 3040 3042 3039 3040 3041 3041 3040 3038 3036 3030 3029 3031 3031 3028 3023 3024 3028 3031 3033 3036 3039 3043 3046
2989 2988 2990 2991 2992 2995 2994 2999 3002 3004 3010 3015 3018 3023 3029 3034 3034 3035 3037 3038 3039 3039 3039 3038 3039 3038 3038 3037 3036 3034 3031 3027 3028 3029 3026 3026 3023 3023 3027 3030 3032 3034 3036 3040 3042
2984 2985 2987 2988 2992 2992 2994 2998 3004 3004 3008 3015 3018 3023 3029 3031 3034 3034 3036 3038 3037 3038 3038 3037 3036 3036 3035 3033 3035 3030 3028 3023 3024 3026 3023 3022 3024 3022 3024 3027 3030 3031 3034 3037 3038
2980 2981 2984 2987 2989 2992 2994 3000 3003 3004 3009 3016 3018 3023 3027 3032 3034 3034 3035 3035 3037 3037 3038 3036 3034 3034 3033 3032 3032 3029 3026 3024 3022 3022 3023 3023 3023 3021 3023 3025 3027 3029 3031 3035 3035
2977 2979 2982 2987 2988 2993 2995 3001 3003 3009 3011 3016 3019 3022 3027 3030 3032 3034 3034 3036 3036 3036 3034 3034 3034 3033 3031 3031 3029 3026 3026 3023 3023 3023 3021 3021 3024 3023 3023 3023 3024 3027 3028 3029 3031
2972 2977 2983 2987 2989 2993 2997 3002 3006 3007 3015 3018 3020 3023 3027 3031 3033 3034 3035 3036 3036 3035 3033 3033 3032 3031 3030 3028 3026 3025 3023 3020 3022 3023 3019 3020 3023 3021 3021 3022 3023 3024 3026 3028 3028
2970 2978 2984 2987 2990 2994 2999 3006 3006 3011 3014 3017 3021 3026 3030 3033 3034 3035 3036 3035 3035 3035 3033 3033 3034 3031 3030 3028 3026 3023 3021 3019 3016 3018 3021 3021 3022 3021 3020 3021 3022 3024 3025 3022 3021
2973 2982 2988 2991 2997 3000 3005 3008 3011 3014 3018 3019 3025 3028 3031 3033 3035 3035 3035 3035 3036 3035 3035 3033 3033 3032 3030 3028 3027 3022 3020 3020 3019 3020 3021 3023 3023 3022 3021 3021 3022 3025 3025 3025 3025
2985 2990 2994 2998 3002 3005 3010 3010 3012 3015 3020 3025 3026 3029 3031 3033 3034 3034 3036 3037 3037 3036 3035 3036 3036 3034 3032 3029 3028 3025 3024 3022 3019 3019 3020 3024 3023 3023 3022 3022 3022 3023 3024 3027 3028
2997 2995 3001 3004 3008 3011 3013 3014 3016 3018 3023 3025 3027 3030 3032 3032 3033 3034 3037 3038 3037 3038 3036 3036 3037 3037 3033 3031 3029 3026 3023 3022 3021 3019 3020 3025 3031 3029 3025 3025 3026 3027 3029 3031 3032
3006 3004 3008 3012 3015 3014 3017 3016 3019 3023 3026 3028 3031 3031 3032 3033 3034 3035 3037 3038 3038 3039 3038 3039 3039 3037 3036 3033 3031 3028 3024 3022 3022 3024 3022 3026 3035 3032 3032 3031 3031 3031 3033 3033 3035
3012 3011 3015 3018 3020 3021 3022 3024 3026 3028 3030 3031 3032 3033 3034 3034 3037 3039 3040 3040 3040 3040 3040 3040 3039 3038 3036 3037 3033 3029 3027 3025 3024 3024 3024 3028 3038 3035 3036 3036 3036 3037 3037 3038 3040
3021 3020 3022 3023 3024 3026 3028 3030 3030 3031 3033 3034 3034 3034 3036 3037 3039 3041 3041 3042 3042 3041 3041 3041 3039 3038 3039 3039 3037 3034 3031 3028 3024 3025 3027 3029 3032 3036 3040 3041 3041 3041 3042 3043 3044
3027 3026 3025 3027 3028 3030 3032 3033 3033 3034 3036 3037 3038 3038 3039 3040 3042 3043 3043 3044 3044 3043 3043 3042 3042 3041 3039 3039 3038 3037 3035 3032 3029 3029 3030 3033 3035 3038 3042 3044 3045 3045 3047 3047 3047
3032 3029 3030 3031 3032 3034 3036 3036 3037 3037 3038 3039 3040 3042 3042 3042 3044 3045 3045 3045 3045 3045 3044 3043 3043 3042 3041 3041 3040 3039 3037 3036 3034 3034 3036 3037 3038 3041 3043 3044 3045 3047 3048 3048 3048
3034 3032 3035 3036 3037 3038 3039 3040 3040 3041 3041 3042 3042 3044 3045 3046 3046 3046 3047 3047 3047 3046 3044 3043 3043 3043 3043 3042 3041 3041 3040 3039 3038 3039 3040 3040 3040 3040 3042 3043 3044 3045 3045 3046 3046
Wind_Speed
31 32 34 32 33 33 35 33 26 26 28 23 19 15 17 18 17 16 14 15 14 15 14 11 11 13 12 13 16 19 28 26 31 31 33 24 29 28 25 28 29 31 26 26 27
32 31 31 33 33 32 34 35 33 28 28 28 22 15 16 17 18 14 16 15 12 12 14 14 14 14 14 14 18 23 30 30 28 26 26 24 29 31 30 31 29 31 23 28 31
31 30 30 31 31 32 32 35 32 30 29 24 23 20 19 18 20 16 10 6 10 14 15 15 15 16 13 15 18 23 32 26 28 25 21 26 31 32 36 38 27 26 24 15 33
28 30 28 30 30 30 32 31 31 32 26 26 27 19 18 17 13 9 10 13 14 14 14 14 14 16 16 17 15 23 23 22 23 23 28 33 32 38 38 39 36 30 26 24 23
25 24 26 29 29 30 30 29 28 32 28 24 25 19 16 17 19 14 14 14 14 13 14 14 14 15 17 15 17 21 22 24 24 24 27 30 38 38 46 39 40 35 26 22 26
22 23 24 24 27 28 28 27 27 29 26 31 22 21 20 18 17 14 15 13 12 12 12 13 14 17 20 17 18 22 25 30 31 31 32 33 38 39 45 43 40 40 31 29 23
20 21 22 23 24 26 24 24 21 28 21 24 19 23 16 16 15 12 15 12 13 10 12 14 16 18 20 19 18 23 27 26 25 26 29 28 47 45 36 40 42 44 38 36 32
20 21 21 21 19 18 19 19 19 21 24 22 19 25 13 12 13 13 13 11 10 11 12 14 17 18 17 19 19 22 23 27 23 18 18 14 44 32 32 30 41 44 44 35 34
21 20 19 18 14 9 10 14 20 24 22 24 25 27 20 18 15 13 11 9 9 11 13 13 16 16 17 15 16 14 16 21 23 12 15 18 39 24 13 25 32 33 41 36 29
20 17 16 17 11 5 8 18 23 27 28 19 24 13 14 12 11 10 8 7 8 9 10 9 10 11 11 10 12 9 15 22 27 22 27 34 34 31 12 11 23 19 27 31 35
19 15 14 12 8 12 15 19 22 19 25 22 14 15 7 12 11 8 6 5 6 6 5 4 9 11 11 13 16 21 23 29 25 20 31 32 28 18 5 18 20 20 20 25 25
15 12 11 11 6 17 18 8 17 9 13 18 19 13 12 11 10 7 6 5 2 3 2 5 10 8 11 11 17 22 27 34 33 26 17 16 23 11 10 12 8 13 19 25 25
15 12 8 10 9 14 25 10 7 8 4 20 18 19 13 9 7 6 6 4 1 1 4 10 8 12 17 20 21 23 30 35 36 30 27 18 15 9 10 13 14 12 15 26 24
10 8 6 8 8 8 19 18 8 10 6 14 16 15 12 11 5 5 5 4 2 2 4 7 5 10 12 19 19 27 16 14 15 15 7 14 3 10 14 16 14 15 11 13 17
7 6 7 5 5 0 8 17 8 11 3 8 13 12 15 9 7 6 7 3 2 4 5 3 6 10 11 15 10 17 4 6 2 9 6 15 1 3 13 13 16 13 19 15 16
7 4 7 6 4 6 10 9 7 4 4 7 10 13 19 11 8 6 7 4 0 2 3 4 6 8 9 9 11 8 4 7 6 6 3 9 15 2 5 11 15 15 16 11 14
10 10 9 7 6 12 15 9 6 6 8 7 13 17 13 12 7 8 9 5 2 3 7 8 6 9 9 8 6 12 12 3 4 2 0 9 2 1 5 11 13 12 10 10 16
11 18 16 13 10 10 12 13 8 8 7 12 20 17 11 11 6 5 7 7 7 4 8 7 2 7 4 7 8 8 12 3 1 2 2 5 3 5 4 10 11 13 9 12 10
23 20 18 14 15 13 14 10 4 15 17 23 19 14 12 7 6 7 6 6 3 7 3 5 4 6 5 6 7 6 12 6 2 6 3 1 1 7 4 9 13 10 13 12 11
26 23 19 16 13 11 10 6 16 18 24 14 7 7 9 9 6 5 3 2 3 7 8 4 3 11 14 16 15 10 14 4 6 1 3 3 6 8 6 12 14 15 14 14 13
22 29 19 16 14 11 10 18 15 21 16 11 8 14 13 7 8 6 4 5 9 9 10 8 7 6 11 11 21 18 17 3 3 3 3 2 4 12 8 12 12 17 17 12 8
19 28 23 19 16 10 20 10 21 15 12 13 18 16 9 9 9 5 5 4 5 7 6 6 3 4 7 11 13 25 18 13 5 7 10 8 5 13 10 7 11 13 13 11 12
22 26 23 19 24 20 17 17 15 13 13 14 12 13 12 9 8 8 6 5 4 3 2 2 2 3 3 1 14 21 17 11 9 3 9 5 4 1 7 14 15 14 15 16 17
22 20 16 25 25 24 18 13 16 20 20 18 17 16 11 12 9 7 9 8 8 6 6 6 8 8 5 5 8 10 17 13 12 13 10 11 17 12 12 12 14 15 14 12 11
19 19 18 23 23 20 12 13 20 21 17 14 15 15 10 9 15 13 9 10 9 7 5 7 8 10 8 6 7 10 14 18 20 12 7 19 12 11 10 11 10 9 9 7 5
14 23 23 24 22 17 18 17 16 18 16 15 15 12 10 11 12 10 8 6 5 6 5 4 2 7 8 7 9 11 9 12 17 17 17 11 8 7 8 8 7 7 5 4 5
20 24 22 18 16 15 15 12 13 13 12 13 13 9 8 12 11 12 9 6 4 4 4 2 1 2 2 2 1 3 9 9 11 10 9 2 4 4 4 6 7 8 9 9 10
Wind_Direction
279 277 276 271 268 265 263 260 262 256 272 265 268 277 279 286 288 290 297 289 289 291 290 284 276 270 256 233 230 230 231 246 250 250 254 250 239 218 237 251 237 232 257 264 267
282 277 271 268 266 262 259 257 256 258 259 264 257 267 271 278 284 294 291 284 284 288 290 284 280 264 253 236 234 233 242 249 257 263 263 255 244 237 239 230 231 235 250 264 263
287 280 274 269 263 260 259 256 256 251 245 251 260 250 259 269 281 291 281 267 285 290 286 281 278 279 268 243 243 245 252 261 260 261 247 252 239 236 238 235 236 236 235 267 257
283 280 274 266 262 255 254 255 252 248 238 256 258 264 254 263 275 270 285 287 287 289 284 277 270 269 265 257 254 257 261 267 273 270 254 244 246 232 229 239 231 236 236 244 257
301 291 275 266 260 254 249 248 244 243 231 235 250 255 249 255 268 269 275 278 278 282 280 278 274 267 261 257 254 247 261 261 266 262 260 256 247 247 229 234 228 231 226 228 240
302 298 294 280 262 254 247 244 241 233 227 236 238 252 244 249 255 267 270 269 274 277 273 271 266 264 267 265 260 267 259 260 255 262 265 261 266 253 241 233 232 227 231 223 234
288 290 298 291 271 257 247 243 237 220 210 229 224 237 228 236 259 269 267 264 275 262 271 270 269 267 269 277 269 267 274 272 277 277 272 272 263 259 261 241 235 226 229 229 230
287 291 296 306 286 267 249 239 216 210 217 219 229 222 220 241 257 257 256 263 261 272 271 274 273 269 272 272 267 269 271 282 289 295 296 279 280 283 261 248 234 230 230 226 230
287 294 299 303 305 267 249 223 196 213 222 224 224 233 248 246 249 241 239 240 256 267 269 266 264 268 260 268 279 273 272 288 304 307 286 268 280 290 298 245 239 240 235 231 233
286 292 294 297 306 204 190 210 204 212 204 216 230 182 214 212 216 202 227 245 269 280 280 274 275 266 268 249 252 278 289 292 291 290 297 298 289 277 251 279 228 235 224 225 232
296 291 291 278 284 198 200 171 195 187 189 211 194 214 204 198 199 202 224 248 254 270 267 259 261 269 309 287 287 282 281 285 286 295 296 294 283 270 276 246 227 232 216 215 218
300 288 279 260 252 205 204 180 222 182 199 210 179 188 183 182 196 192 203 214 226 197 217 262 281 320 303 292 283 282 281 279 288 297 277 298 298 251 238 213 228 226 221 217 231
296 286 274 247 246 223 228 182 188 156 170 189 199 215 171 186 192 170 181 188 168 146 262 275 300 297 288 287 286 280 274 279 275 283 290 280 273 230 193 244 238 239 220 222 231
301 283 260 233 246 240 240 223 184 136 130 153 175 178 181 172 153 183 179 163 144 171 244 283 329 314 295 285 280 281 305 306 274 278 252 187 235 199 218 237 236 230 234 231 237
288 284 226 231 217 121 250 226 137 133 121 117 160 170 170 165 174 188 163 155 189 282 292 308 320 303 279 296 306 288 281 303 254 207 253 208 210 227 234 232 237 231 235 231 240
240 228 195 203 186 114 133 184 145 142 78 120 168 166 156 150 153 162 137 128 49 323 348 355 301 296 302 308 282 304 272 251 241 220 251 198 223 211 212 222 223 236 240 228 208
227 184 150 153 141 129 153 144 128 62 150 143 152 152 145 146 148 119 126 87 16 13 352 334 308 304 307 323 254 246 267 248 177 193 12 174 211 212 286 210 203 223 235 237 224
137 150 139 127 117 109 122 151 67 95 97 124 134 127 143 139 144 132 101 85 67 341 336 343 6 6 355 1 341 292 287 217 307 137 106 119 347 298 302 209 197 199 184 192 159
126 131 122 115 107 131 141 123 81 113 121 128 130 136 143 137 165 147 96 83 359 338 326 5 358 24 11 25 344 339 1 339 126 91 99 121 346 23 142 161 165 177 175 164 164
118 115 111 103 103 123 139 62 116 129 136 124 112 143 154 150 126 106 89 112 24 69 70 41 350 60 54 49 37 13 6 341 355 85 76 34 23 41 99 144 162 178 176 142 146
108 101 91 85 103 115 86 105 87 140 116 85 124 133 123 124 100 74 95 82 92 62 53 36 57 53 54 50 37 22 10 340 313 292 135 88 20 26 81 128 143 132 131 142 135
113 101 100 99 105 98 126 65 71 73 90 95 120 120 111 110 89 79 87 91 74 80 55 43 345 330 72 50 39 27 28 45 47 27 70 95 16 3 70 102 114 131 142 141 141
120 105 99 88 103 94 96 76 83 90 120 108 103 106 107 74 95 78 90 66 77 87 76 48 5 310 289 343 39 33 47 55 61 113 48 104 156 50 78 78 96 97 92 88 79
111 108 101 110 96 87 84 89 95 92 98 105 105 106 94 83 84 95 79 67 86 84 90 77 78 68 118 77 40 40 48 50 77 73 92 117 146 147 130 116 113 116 114 112 113
117 102 106 112 96 86 91 108 106 98 104 105 95 98 107 100 98 90 87 103 92 80 87 85 87 85 83 69 51 43 58 60 64 66 103 138 129 134 138 139 136 135 135 134 134
131 114 118 117 108 109 113 111 113 112 122 114 118 125 129 107 104 82 76 90 88 75 101 101 109 96 85 86 76 52 57 70 77 78 89 110 126 138 160 167 180 181 184 207 228
135 122 124 126 119 117 117 119 127 129 115 114 121 125 120 116 111 100 92 90 75 48 52 64 85 131 90 109 19 30 48 79 98 110 123 145 143 132 189 198 217 234 244 250 270